Weather History for Northeast Philadelphia, PA

Change the Weather History Date:

Thursday, July 18, 2013

  Actual Average Record
Temperature  
Mean Temperature 87 °F -  
Max Temperature 96 °F 83 °F 100 °F (2012)
Min Temperature 78 °F 64 °F 63 °F (2014)
Cooling Degree Days 22    
Growing Degree Days 37 (Base 50)    
Moisture  
Dew Point 73 °F    
Average Humidity 62    
Maximum Humidity 79    
Minimum Humidity 49    
Precipitation  
Precipitation 0.00 in - - ()
Sea Level Pressure  
Sea Level Pressure 30.04 in    
Wind  
Wind Speed 4 mph (WNW)    
Max Wind Speed 9 mph    
Max Gust Speed -    
Visibility 9 miles    
Events Thunderstorm    
Averages and records for this station are not official NWS values.
T = Trace of Precipitation, MM = Missing Value Source: NWS Daily Summary

Daily Weather History Graph

Daily Weather History Graph

Search for Another Location

Airport:

Trip Planner

Search our weather history database for the weather conditions in past years. The results will help you decide how hot, cold, wet, or windy it might be!

Date:

Astronomy

Jul. 18, 2013 Rise Set
Actual Time 5:46 AM EDT 8:26 PM EDT
Civil Twilight 5:14 AM EDT 8:57 PM EDT
Nautical Twilight 4:34 AM EDT 9:36 PM EDT
Astronomical Twilight 3:50 AM EDT 10:21 PM EDT
Moon 4:20 PM EDT (7/18) 1:34 AM EDT (7/18)
Length of Visible Light 15h 43m
Length of Day
14h 39m
Waxing Gibbous, 77% of the Moon is Illuminated
Jul 18
Waxing Gibbous
Jul 22
Full
Jul 29
Last Quarter
Aug 6
New
Aug 14
First Quarter

Hourly Weather History & Observations

Time (EDT) Temp. Heat Index Dew Point Humidity Pressure Visibility Wind Dir Wind Speed Gust Speed Precip Events Conditions
12:54 AM 81.0 °F 85.8 °F 73.0 °F 77% 30.10 in 8.0 mi Calm Calm - N/A   Clear
1:54 AM 79.0 °F - 72.0 °F 79% 30.09 in 8.0 mi Calm Calm - N/A   Clear
2:54 AM 79.0 °F - 71.1 °F 77% 30.08 in 8.0 mi SW 3.5 mph - N/A   Clear
3:54 AM 81.0 °F 84.9 °F 71.1 °F 72% 30.06 in 9.0 mi WSW 6.9 mph - N/A   Clear
4:54 AM 79.0 °F - 71.1 °F 77% 30.06 in 9.0 mi West 5.8 mph - N/A   Clear
5:54 AM 78.1 °F - 71.1 °F 79% 30.07 in 7.0 mi West 4.6 mph - N/A   Clear
6:54 AM 80.1 °F 83.6 °F 71.1 °F 74% 30.07 in 7.0 mi West 3.5 mph - N/A   Clear
7:54 AM 84.0 °F 90.2 °F 73.0 °F 69% 30.09 in 8.0 mi NNW 8.1 mph - N/A   Scattered Clouds
8:54 AM 86.0 °F 93.8 °F 73.9 °F 67% 30.09 in 9.0 mi NNW 5.8 mph - N/A   Clear
9:54 AM 89.1 °F 99.1 °F 75.0 °F 63% 30.09 in 10.0 mi NNE 6.9 mph - N/A   Clear
10:54 AM 91.0 °F 100.4 °F 73.9 °F 57% 30.08 in 10.0 mi Calm Calm - N/A   Clear
11:54 AM 93.0 °F 104.6 °F 75.0 °F 56% 30.07 in 10.0 mi North 4.6 mph - N/A   Clear
12:54 PM 95.0 °F 104.5 °F 73.0 °F 49% 30.06 in 10.0 mi Variable 3.5 mph - N/A   Clear
1:54 PM 95.0 °F 104.5 °F 73.0 °F 49% 30.05 in 10.0 mi Calm Calm - N/A   Scattered Clouds
2:54 PM 96.1 °F 107.1 °F 73.9 °F 49% 30.02 in 10.0 mi West 6.9 mph - N/A   Mostly Cloudy
3:54 PM 95.0 °F 104.5 °F 73.0 °F 49% 30.01 in 10.0 mi NW 8.1 mph - N/A   Clear
4:54 PM 95.0 °F 105.2 °F 73.9 °F 50% 29.99 in 10.0 mi WNW 8.1 mph - N/A   Clear
5:54 PM 93.9 °F 103.4 °F 73.0 °F 51% 29.99 in 10.0 mi NW 9.2 mph - N/A Thunderstorm Clear
6:44 PM 93.2 °F 100.5 °F 71.6 °F 49% 29.99 in 10.0 mi NW 6.9 mph - N/A   Clear
6:54 PM 93.0 °F 100.7 °F 72.0 °F 50% 29.99 in 10.0 mi WNW 6.9 mph - N/A   Clear
7:54 PM 91.0 °F 98.2 °F 72.0 °F 53% 30.01 in 10.0 mi WNW 5.8 mph - N/A   Clear
8:54 PM 88.0 °F 94.7 °F 72.0 °F 59% 30.01 in 10.0 mi West 3.5 mph - N/A   Clear
9:54 PM 87.1 °F 95.4 °F 73.9 °F 65% 30.01 in 10.0 mi WSW 5.8 mph - N/A   Clear
10:54 PM 88.0 °F 98.5 °F 75.9 °F 67% 29.99 in 9.0 mi WSW 8.1 mph - N/A   Clear
11:54 PM 86.0 °F 93.8 °F 73.9 °F 67% 30.01 in 9.0 mi WSW 8.1 mph - N/A   Clear